When you browse on this site, cookies collect data to enhance your experience and personalize the content and advertising you see.
Visit our Privacy Policy to learn more. By continuing to use the site, you agree to this use of cookies and data.
  • In Slovakia
  • List of Countries
  • For 7 days
  • Water Temperature
  • Satellite Maps
  • Weather Map
  • Weather Widgets
  • user-avatar
    Login

    Hourly Weather Quito

    Today, 18 January, Friday

    Time Temperature Precipitation Wind Pressure Humidity
    00:00 +16°C° 0.1 mm 2 mps 622 mmHg 96%
    01:00 +16°C° 0 mm 1 mps 621 mmHg 96%
    02:00 +16°C° 0.3 mm 1 mps 621 mmHg 97%
    03:00 +16°C° 0.3 mm 2 mps 621 mmHg 97%
    04:00 +16°C° 0.3 mm 2 mps 621 mmHg 97%
    05:00 +16°C° 0 mm 2 mps 621 mmHg 96%
    06:00 +17°C° 0 mm 2 mps 622 mmHg 95%
    07:00 +18°C° 0 mm 2 mps 622 mmHg 94%
    08:00 +19°C° 0.8 mm 2 mps 623 mmHg 90%
    09:00 +22°C° 0.8 mm 1 mps 623 mmHg 86%
    10:00 +23°C° 0.8 mm 1 mps 624 mmHg 82%
    11:00 +24°C° 2.3 mm 1 mps 623 mmHg 80%
    12:00 +25°C° 2.3 mm 1 mps 623 mmHg 79%
    13:00 +25°C° 2.3 mm 1 mps 622 mmHg 78%
    14:00 +24°C° 2.6 mm 1 mps 622 mmHg 82%
    15:00 +23°C° 2.6 mm 1 mps 621 mmHg 85%
    16:00 +21°C° 2.6 mm 2 mps 620 mmHg 89%
    17:00 +20°C° 2.5 mm 2 mps 620 mmHg 90%
    18:00 +19°C° 2.5 mm 2 mps 621 mmHg 92%
    19:00 +18°C° 2.5 mm 2 mps 621 mmHg 93%
    20:00 +19°C° 1.3 mm 1 mps 621 mmHg 93%
    21:00 +19°C° 1.3 mm 1 mps 622 mmHg 94%
    22:00 +19°C° 1.3 mm 1 mps 622 mmHg 94%
    23:00 +18°C° 1.1 mm 1 mps 622 mmHg 95%

    Tomorrow, 19 January, Saturday

    Time Temperature Precipitation Wind Pressure Humidity
    00:00 +18°C° 1.1 mm 1 mps 622 mmHg 95%
    01:00 +18°C° 1.1 mm 1 mps 622 mmHg 96%
    02:00 +17°C° 1.9 mm 2 mps 621 mmHg 95%
    03:00 +17°C° 1.9 mm 2 mps 621 mmHg 95%
    04:00 +17°C° 1.9 mm 3 mps 621 mmHg 95%
    05:00 +17°C° 0.7 mm 3 mps 621 mmHg 95%
    06:00 +17°C° 0.7 mm 3 mps 622 mmHg 95%
    07:00 +17°C° 0.7 mm 3 mps 622 mmHg 96%
    08:00 +17°C° 0.5 mm 3 mps 622 mmHg 94%
    09:00 +17°C° 0.5 mm 3 mps 622 mmHg 93%
    10:00 +17°C° 0.5 mm 3 mps 623 mmHg 92%
    11:00 +18°C° 0.6 mm 3 mps 623 mmHg 89%
    12:00 +20°C° 0.6 mm 3 mps 623 mmHg 85%
    13:00 +21°C° 0.6 mm 3 mps 623 mmHg 82%
    14:00 +20°C° 1.1 mm 3 mps 623 mmHg 84%
    15:00 +20°C° 1.1 mm 2 mps 622 mmHg 85%
    16:00 +20°C° 1.1 mm 2 mps 622 mmHg 87%
    17:00 +19°C° 0.4 mm 2 mps 622 mmHg 89%
    18:00 +18°C° 0.4 mm 2 mps 622 mmHg 92%
    19:00 +17°C° 0.4 mm 2 mps 622 mmHg 94%
    20:00 +18°C° 0.1 mm 1 mps 622 mmHg 94%
    21:00 +18°C° 0.1 mm 1 mps 622 mmHg 94%
    22:00 +16°C° 0.1 mm 1 mps 623 mmHg 94%
    23:00 +16°C° 0 mm 1 mps 622 mmHg 94%

    Day after tomorrow, 20 January, Sunday

    Time Temperature Precipitation Wind Pressure Humidity
    00:00 +16°C° 0 mm 1 mps 622 mmHg 95%
    01:00 +16°C° 0 mm 1 mps 622 mmHg 95%
    02:00 +16°C° 0 mm 1 mps 622 mmHg 96%
    03:00 +15°C° 0 mm 1 mps 621 mmHg 96%
    04:00 +15°C° 0 mm 1 mps 621 mmHg 97%
    05:00 +16°C° 0 mm 1 mps 621 mmHg 96%
    06:00 +16°C° 0 mm 1 mps 622 mmHg 95%
    07:00 +16°C° 0 mm 1 mps 623 mmHg 94%
    08:00 +18°C° 0.2 mm 1 mps 623 mmHg 94%
    09:00 +18°C° 0.2 mm 1 mps 623 mmHg 93%
    10:00 +18°C° 0.2 mm 1 mps 623 mmHg 93%
    11:00 +19°C° 0.1 mm 1 mps 623 mmHg 87%
    12:00 +21°C° 0.1 mm 1 mps 623 mmHg 82%
    13:00 +22°C° 0.1 mm 1 mps 623 mmHg 76%
    14:00 +23°C° 0.2 mm 1 mps 623 mmHg 73%
    15:00 +24°C° 0.2 mm 1 mps 622 mmHg 70%
    16:00 +25°C° 0.2 mm 1 mps 622 mmHg 67%
    17:00 +23°C° 2.2 mm 1 mps 622 mmHg 75%
    18:00 +21°C° 2.2 mm 1 mps 622 mmHg 84%
    19:00 +19°C° 2.2 mm 1 mps 622 mmHg 92%
    20:00 +19°C° 1.8 mm 1 mps 622 mmHg 93%
    21:00 +18°C° 1.8 mm 1 mps 623 mmHg 94%
    22:00 +18°C° 1.8 mm 1 mps 623 mmHg 95%
    23:00 +18°C° 0.1 mm 1 mps 623 mmHg 96%

    21 January, Monday

    Time Temperature Precipitation Wind Pressure Humidity
    00:00 +16°C° 0.1 mm 2 mps 622 mmHg 96%
    01:00 +16°C° 0.1 mm 2 mps 622 mmHg 97%
    02:00 +16°C° 0 mm 2 mps 622 mmHg 97%
    03:00 +16°C° 0 mm 2 mps 622 mmHg 98%
    04:00 +16°C° 0 mm 2 mps 622 mmHg 98%
    05:00 +16°C° 0 mm 2 mps 622 mmHg 97%
    06:00 +17°C° 0 mm 2 mps 622 mmHg 97%
    07:00 +17°C° 0 mm 2 mps 623 mmHg 96%
    08:00 +19°C° 0.3 mm 2 mps 624 mmHg 91%
    09:00 +21°C° 0.3 mm 1 mps 624 mmHg 86%
    10:00 +23°C° 0.3 mm 1 mps 625 mmHg 82%
    11:00 +23°C° 3 mm 1 mps 624 mmHg 82%
    12:00 +24°C° 3 mm 1 mps 624 mmHg 82%
    13:00 +24°C° 3 mm 1 mps 623 mmHg 82%
    14:00 +23°C° 4 mm 1 mps 622 mmHg 86%
    15:00 +21°C° 4 mm 1 mps 621 mmHg 89%
    16:00 +19°C° 4 mm 2 mps 620 mmHg 93%
    17:00 +19°C° 1.9 mm 2 mps 621 mmHg 94%
    18:00 +18°C° 1.9 mm 2 mps 621 mmHg 94%
    19:00 +18°C° 1.9 mm 2 mps 622 mmHg 95%
    20:00 +18°C° 1 mm 2 mps 622 mmHg 95%
    21:00 +19°C° 1 mm 1 mps 623 mmHg 95%
    22:00 +19°C° 1 mm 1 mps 623 mmHg 96%
    23:00 +18°C° 0.5 mm 1 mps 623 mmHg 96%

    22 January, Tuesday

    Time Temperature Precipitation Wind Pressure Humidity
    00:00 +18°C° 0.5 mm 1 mps 622 mmHg 97%
    01:00 +18°C° 0.5 mm 1 mps 622 mmHg 98%
    02:00 +18°C° 1.2 mm 1 mps 622 mmHg 98%
    03:00 +18°C° 1.2 mm 1 mps 621 mmHg 98%
    04:00 +18°C° 1.2 mm 1 mps 621 mmHg 98%
    05:00 +18°C° 1.8 mm 1 mps 622 mmHg 98%
    06:00 +18°C° 1.8 mm 1 mps 622 mmHg 98%
    07:00 +18°C° 1.8 mm 1 mps 623 mmHg 97%
    08:00 +20°C° 0.9 mm 1 mps 623 mmHg 92%
    09:00 +22°C° 0.9 mm 1 mps 624 mmHg 87%
    10:00 +23°C° 0.9 mm 1 mps 624 mmHg 81%
    11:00 +24°C° 1.7 mm 1 mps 624 mmHg 81%
    12:00 +25°C° 1.7 mm 1 mps 623 mmHg 80%
    13:00 +25°C° 1.7 mm 1 mps 623 mmHg 79%
    14:00 +24°C° 2.4 mm 1 mps 622 mmHg 82%
    15:00 +23°C° 2.4 mm 1 mps 621 mmHg 84%
    16:00 +22°C° 2.4 mm 1 mps 621 mmHg 87%
    17:00 +21°C° 1.3 mm 1 mps 621 mmHg 89%
    18:00 +20°C° 1.3 mm 1 mps 621 mmHg 91%
    19:00 +19°C° 1.3 mm 1 mps 621 mmHg 93%
    20:00 +19°C° 0.4 mm 1 mps 622 mmHg 94%
    21:00 +17°C° 0.4 mm 2 mps 622 mmHg 94%
    22:00 +17°C° 0.4 mm 2 mps 622 mmHg 95%
    23:00 +17°C° 0.1 mm 2 mps 622 mmHg 95%

    23 January, Wednesday

    Time Temperature Precipitation Wind Pressure Humidity
    00:00 +17°C° 0.1 mm 2 mps 622 mmHg 95%
    01:00 +17°C° 0.1 mm 2 mps 621 mmHg 96%
    02:00 +16°C° 0.2 mm 2 mps 621 mmHg 96%
    03:00 +16°C° 0.2 mm 2 mps 621 mmHg 96%
    04:00 +16°C° 0.2 mm 2 mps 621 mmHg 96%
    05:00 +16°C° 0.1 mm 2 mps 621 mmHg 96%
    06:00 +16°C° 0.1 mm 2 mps 622 mmHg 95%
    07:00 +17°C° 0.1 mm 2 mps 622 mmHg 95%
    08:00 +19°C° 0.2 mm 1 mps 623 mmHg 89%
    09:00 +21°C° 0.2 mm 1 mps 624 mmHg 84%
    10:00 +23°C° 0.2 mm 1 mps 624 mmHg 79%
    11:00 +24°C° 0.2 mm 1 mps 624 mmHg 71%
    12:00 +25°C° 0.2 mm 1 mps 624 mmHg 64%
    13:00 +26°C° 0.2 mm 1 mps 623 mmHg 56%
    14:00 +25°C° 0.2 mm 1 mps 623 mmHg 59%
    15:00 +25°C° 0.2 mm 1 mps 622 mmHg 62%
    16:00 +25°C° 0.2 mm 1 mps 622 mmHg 65%
    17:00 +23°C° 0.2 mm 1 mps 621 mmHg 73%
    18:00 +20°C° 0.2 mm 2 mps 621 mmHg 81%
    19:00 +18°C° 0.2 mm 2 mps 621 mmHg 89%
    20:00 +18°C° 0 mm 2 mps 621 mmHg 91%
    21:00 +18°C° 0 mm 2 mps 621 mmHg 92%
    22:00 +17°C° 0 mm 2 mps 622 mmHg 94%
    23:00 +18°C° 0 mm 1 mps 621 mmHg 93%
    Show more